Caldwell, NJ

1:17 PM EDT on June 22, 2017 (GMT -0400)
Essex County

Weather History for KCDW - December, 2013

Change the Weather History Date:

Tuesday, December 24, 2013

  Actual Average Record
Temperature  
Mean Temperature 32 °F -  
Max Temperature 39 °F 39 °F 70 °F (2015)
Min Temperature 24 °F 24 °F 0 °F (1989)
Degree Days  
Heating Degree Days 33    
Moisture  
Dew Point 18 °F    
Average Humidity 54    
Maximum Humidity 76    
Minimum Humidity 41    
Precipitation  
Precipitation 0.00 in - - ()
Sea Level Pressure  
Sea Level Pressure 30.22 in    
Wind  
Wind Speed 6 mph (NNW)    
Max Wind Speed 13 mph    
Max Gust Speed 24 mph    
Visibility 10 miles    
Events      
Averages and records for this station are not official NWS values.
T = Trace of Precipitation, MM = Missing Value Source: NWS Daily Summary

Daily Weather History Graph

Daily Weather History Graph

Search for Another Location

Airport or City:

Trip Planner

Search our weather history database for the weather conditions in past years. The results will help you decide how hot, cold, wet, or windy it might be!

Date:

Astronomy

Dec. 24, 2013 Rise Set
Actual Time 7:19 AM EST 4:34 PM EST
Civil Twilight 6:48 AM EST 5:05 PM EST
Nautical Twilight 6:13 AM EST 5:39 PM EST
Astronomical Twilight 5:40 AM EST 6:13 PM EST
Moon 11:42 PM EST (12/24) 11:09 AM EST (12/24)
Length of Visible Light 10h 16m
Length of Day
9h 14m
Waning Gibbous, 59% of the Moon is Illuminated
Dec 24
Waning Gibbous
Dec 25
Last Quarter
Jan 1
New
Jan 7
First Quarter
Jan 15
Full

Hourly Weather History & Observations

Time (EST) Temp. Windchill Dew Point Humidity Pressure Visibility Wind Dir Wind Speed Gust Speed Precip Events Conditions
12:53 AM 37.0 °F 30.4 °F 21.9 °F 54% 30.19 in 10.0 mi NNW 9.2 mph - N/A   Clear
1:53 AM 36.0 °F 31.1 °F 21.9 °F 57% 30.18 in 10.0 mi NNW 5.8 mph - N/A   Clear
2:53 AM 35.1 °F 31.0 °F 21.0 °F 57% 30.20 in 10.0 mi NNW 4.6 mph - N/A   Clear
3:53 AM 34.0 °F 31.0 °F 21.0 °F 59% 30.21 in 10.0 mi Variable 3.5 mph - N/A   Clear
4:53 AM 34.0 °F 28.0 °F 18.0 °F 52% 30.19 in 10.0 mi Variable 6.9 mph - N/A   Clear
5:53 AM 33.1 °F 27.7 °F 18.0 °F 54% 30.20 in 10.0 mi NNW 5.8 mph - N/A   Clear
6:53 AM 32.0 °F 28.7 °F 18.0 °F 56% 30.18 in 10.0 mi Variable 3.5 mph - N/A   Clear
7:53 AM 30.9 °F - 18.0 °F 59% 30.18 in 10.0 mi Calm Calm - N/A   Clear
8:53 AM 32.0 °F - 19.9 °F 61% 30.19 in 10.0 mi Calm Calm - N/A   Clear
9:53 AM 35.1 °F 32.2 °F 19.0 °F 52% 30.20 in 10.0 mi Variable 3.5 mph - N/A   Clear
10:53 AM 39.0 °F 34.8 °F 19.0 °F 45% 30.17 in 10.0 mi NNE 5.8 mph - N/A   Clear
11:53 AM 39.0 °F 34.0 °F 17.1 °F 41% 30.14 in 10.0 mi Variable 6.9 mph - N/A   Clear
12:53 PM 37.9 °F 31.5 °F 18.0 °F 45% 30.13 in 10.0 mi NNW 9.2 mph - N/A   Overcast
1:53 PM 37.9 °F 30.5 °F 17.1 °F 43% 30.13 in 10.0 mi NW 11.5 mph - N/A   Overcast
2:53 PM 37.0 °F 30.4 °F 17.1 °F 44% 30.15 in 10.0 mi NNW 9.2 mph - N/A   Overcast
3:53 PM 35.1 °F 29.3 °F 19.9 °F 54% 30.18 in 10.0 mi NW 6.9 mph - N/A   Overcast
4:53 PM 34.0 °F 28.8 °F 21.0 °F 59% 30.19 in 10.0 mi WNW 5.8 mph - N/A   Overcast
5:53 PM 33.1 °F - 21.9 °F 64% 30.21 in 10.0 mi Calm Calm - N/A   Mostly Cloudy
6:53 PM 30.9 °F 27.5 °F 24.1 °F 76% 30.25 in 10.0 mi WNW 3.5 mph - 0.00 in   Mostly Cloudy
7:53 PM 30.0 °F 20.0 °F 16.0 °F 56% 30.29 in 10.0 mi NW 12.7 mph 24.2 mph N/A   Overcast
8:53 PM 28.9 °F 19.8 °F 14.0 °F 54% 30.32 in 10.0 mi NNW 10.4 mph 24.2 mph N/A   Mostly Cloudy
9:53 PM 28.0 °F 18.6 °F 12.9 °F 53% 30.35 in 10.0 mi North 10.4 mph 21.9 mph N/A   Partly Cloudy
10:53 PM 25.0 °F 16.3 °F 8.1 °F 49% 30.37 in 10.0 mi NNW 8.1 mph 17.3 mph N/A   Clear
11:53 PM 24.1 °F 14.4 °F 7.0 °F 48% 30.39 in 10.0 mi NNW 9.2 mph 16.1 mph N/A   Clear